Weather History for Andalusia, AL

Change the Weather History Date:

Wednesday, February 6, 2013

  Actual Average (KCEW) Record (KCEW)
Temperature  
Mean Temperature 64 °F -  
Max Temperature 73 °F 57 °F 77 °F (1999)
Min Temperature 55 °F 39 °F 19 °F (2000)
Degree Days  
Heating Degree Days 1    
Growing Degree Days 14 (Base 50)    
Moisture  
Dew Point 54 °F    
Average Humidity 78    
Maximum Humidity 94    
Minimum Humidity 48    
Precipitation  
Precipitation 0.02 in - - ()
Sea Level Pressure  
Sea Level Pressure 30.10 in    
Wind  
Wind Speed 2 mph (East)    
Max Wind Speed 6 mph    
Max Gust Speed -    
Visibility 6 miles    
Events Fog , Rain    
Averages and records for this station are not official NWS values.
T = Trace of Precipitation, MM = Missing Value Source: NWS Daily Summary

Daily Weather History Graph

Daily Weather History Graph

Search for Another Location

Airport:

Trip Planner

Search our weather history database for the weather conditions in past years. The results will help you decide how hot, cold, wet, or windy it might be!

Date:

Astronomy

Feb. 06, 2013 Rise Set
Actual Time 6:34 AM CST 5:25 PM CST
Civil Twilight 6:09 AM CST 5:50 PM CST
Nautical Twilight 5:40 AM CST 6:19 PM CST
Astronomical Twilight 5:11 AM CST 6:47 PM CST
Moon 3:10 AM CST (2/6) 1:50 PM CST (2/6)
Length of Visible Light 11h 41m
Length of Day
10h 51m
Waning Crescent, 17% of the Moon is Illuminated
Feb 6
Waning Crescent
Feb 10
New
Feb 17
First Quarter
Feb 25
Full
Mar 4
Last Quarter

Hourly Weather History & Observations

Time (CST) Temp. Dew Point Humidity Pressure Visibility Wind Dir Wind Speed Gust Speed Precip Events Conditions
12:56 AM 57.9 °F 54.0 °F 87% 30.04 in 0.2 mi Calm Calm - 0.01 in Fog , Rain Light Rain
1:56 AM 57.0 °F 53.1 °F 87% 30.05 in 0.2 mi ESE 3.5 mph - 0.00 in Fog , Rain Light Rain
2:56 AM 57.0 °F 53.1 °F 87% 30.05 in 0.2 mi Calm Calm - 0.00 in Fog Fog
3:36 AM 57.2 °F 53.6 °F 88% 30.07 in 0.5 mi NNE 3.5 mph - 0.00 in Fog , Rain Light Rain
3:53 AM 57.2 °F 53.6 °F 88% 30.07 in 0.2 mi Calm Calm - 0.00 in Fog Fog
3:56 AM 57.0 °F 53.1 °F 87% 30.06 in 0.2 mi Calm Calm - 0.00 in Fog Fog
4:56 AM 55.9 °F 52.0 °F 87% 30.07 in 0.2 mi SE 5.8 mph - 0.00 in Fog , Rain Light Rain
5:56 AM 55.9 °F 52.0 °F 87% 30.09 in 0.2 mi Calm Calm - 0.00 in Fog Fog
6:56 AM 55.9 °F 52.0 °F 87% 30.12 in 0.2 mi Calm Calm - N/A Fog Fog
7:56 AM 57.0 °F 53.1 °F 87% 30.13 in 0.2 mi East 3.5 mph - N/A Fog Fog
8:56 AM 57.0 °F 54.0 °F 89% 30.14 in 0.2 mi Calm Calm - 0.01 in Fog Fog
9:43 AM 57.2 °F 55.4 °F 94% 30.15 in 0.8 mi East 3.5 mph - N/A   Overcast
9:56 AM 59.0 °F 55.0 °F 87% 30.15 in 1.0 mi Calm Calm - N/A   Overcast
9:58 AM 59.0 °F 55.4 °F 88% 30.16 in 1.5 mi Calm Calm - N/A   Overcast
10:03 AM 59.0 °F 55.4 °F 88% 30.16 in 3.0 mi NNE 3.5 mph - N/A   Overcast
10:26 AM 60.8 °F 55.4 °F 82% 30.17 in 8.0 mi Variable 3.5 mph - N/A   Overcast
10:56 AM 61.0 °F 55.0 °F 81% 30.16 in 9.0 mi East 3.5 mph - N/A   Overcast
11:10 AM 62.6 °F 55.4 °F 77% 30.16 in 10.0 mi Calm Calm - N/A   Overcast
11:24 AM 62.6 °F 55.4 °F 77% 30.15 in 10.0 mi Calm Calm - N/A   Overcast
11:45 AM 64.4 °F 55.4 °F 73% 30.14 in 10.0 mi Calm Calm - N/A   Mostly Cloudy
11:56 AM 66.0 °F 55.9 °F 70% 30.12 in 10.0 mi Variable 4.6 mph - N/A   Mostly Cloudy
12:21 PM 69.8 °F 55.4 °F 60% 30.13 in 10.0 mi ENE 3.5 mph - N/A   Mostly Cloudy
12:35 PM 69.8 °F 55.4 °F 60% 30.12 in 10.0 mi Calm Calm - N/A   Scattered Clouds
12:56 PM 71.1 °F 55.0 °F 57% 30.10 in 10.0 mi East 3.5 mph - N/A   Clear
1:56 PM 73.0 °F 53.1 °F 49% 30.09 in 10.0 mi Variable 4.6 mph - N/A   Partly Cloudy
2:56 PM 73.9 °F 53.1 °F 48% 30.07 in 10.0 mi East 3.5 mph - N/A   Scattered Clouds
3:56 PM 73.0 °F 54.0 °F 51% 30.05 in 10.0 mi Variable 5.8 mph - N/A   Partly Cloudy
4:56 PM 71.1 °F 52.0 °F 51% 30.05 in 10.0 mi SSE 3.5 mph - N/A   Clear
5:56 PM 64.0 °F 53.1 °F 67% 30.06 in 10.0 mi Calm Calm - N/A   Clear
6:56 PM 60.1 °F 53.1 °F 78% 30.07 in 10.0 mi Calm Calm - N/A   Clear
7:56 PM 57.9 °F 52.0 °F 81% 30.07 in 8.0 mi Calm Calm - N/A   Clear
8:56 PM 55.9 °F 51.1 °F 84% 30.07 in 7.0 mi Calm Calm - N/A   Clear
9:56 PM 55.0 °F 50.0 °F 83% 30.05 in 7.0 mi SE 3.5 mph - N/A   Clear
10:56 PM 55.9 °F 51.1 °F 84% 30.06 in 6.0 mi Calm Calm - N/A   Haze
11:56 PM 57.0 °F 52.0 °F 83% 30.07 in 7.0 mi Calm Calm - N/A   Scattered Clouds